Weather History for Orange, MA

Change the Weather History Date:

Thursday, September 20, 2012

  Actual Average Record
Temperature  
Mean Temperature 52 °F -  
Max Temperature 66 °F 68 °F 82 °F (1998)
Min Temperature 39 °F 46 °F 34 °F (2014)
Degree Days  
Heating Degree Days 12    
Growing Degree Days 2 (Base 50)    
Moisture  
Dew Point 43 °F    
Average Humidity 70    
Maximum Humidity 97    
Minimum Humidity 40    
Precipitation  
Precipitation 0.00 in - - ()
Sea Level Pressure  
Sea Level Pressure 30.21 in    
Wind  
Wind Speed 2 mph (South)    
Max Wind Speed 7 mph    
Max Gust Speed -    
Visibility 10 miles    
Events      
Averages and records for this station are not official NWS values.
T = Trace of Precipitation, MM = Missing Value Source: NWS Daily Summary

Daily Weather History Graph

Daily Weather History Graph

Search for Another Location

Airport:

Trip Planner

Search our weather history database for the weather conditions in past years. The results will help you decide how hot, cold, wet, or windy it might be!

Date:

Astronomy

Sep. 20, 2012 Rise Set
Actual Time 6:34 AM EDT 6:49 PM EDT
Civil Twilight 6:06 AM EDT 7:17 PM EDT
Nautical Twilight 5:33 AM EDT 7:50 PM EDT
Astronomical Twilight 4:59 AM EDT 8:24 PM EDT
Moon 11:57 AM EDT (9/20) 9:40 PM EDT (9/20)
Length of Visible Light 13h 10m
Length of Day
12h 14m
Waxing Crescent, 26% of the Moon is Illuminated
Sep 20
Waxing Crescent
Sep 22
First Quarter
Sep 29
Full
Oct 8
Last Quarter
Oct 15
New

Hourly Weather History & Observations

Time (EDT) Temp. Windchill Dew Point Humidity Pressure Visibility Wind Dir Wind Speed Gust Speed Precip Events Conditions
12:52 AM 43.0 °F - 42.1 °F 97% 30.22 in 10.0 mi Calm Calm - N/A   Clear
1:52 AM 42.1 °F - 39.9 °F 92% 30.23 in 10.0 mi Calm Calm - N/A   Clear
3:52 AM 39.0 °F - 37.9 °F 96% 30.25 in 10.0 mi Calm Calm - N/A   Clear
4:52 AM 42.1 °F - 41.0 °F 96% 30.26 in 10.0 mi Calm Calm - N/A   Overcast
6:52 AM 39.0 °F 36.8 °F 37.9 °F 96% 30.27 in 10.0 mi NNW 3.5 mph - N/A   Clear
7:52 AM 45.0 °F 43.5 °F 42.1 °F 90% 30.27 in 10.0 mi NNW 3.5 mph - N/A   Clear
9:52 AM 57.0 °F - 43.0 °F 59% 30.27 in 10.0 mi ENE 3.5 mph - N/A   Clear
10:52 AM 59.0 °F - 39.9 °F 49% 30.26 in 10.0 mi Variable 6.9 mph - N/A   Clear
11:52 AM 61.0 °F - 39.9 °F 46% 30.23 in 10.0 mi East 5.8 mph - N/A   Clear
12:52 PM 62.1 °F - 39.9 °F 44% 30.21 in 10.0 mi Calm Calm - N/A   Clear
1:52 PM 64.0 °F - 39.9 °F 41% 30.19 in 10.0 mi South 4.6 mph - N/A   Clear
2:52 PM 66.0 °F - 41.0 °F 40% 30.17 in 10.0 mi SSW 6.9 mph - N/A   Partly Cloudy
3:52 PM 66.0 °F - 43.0 °F 43% 30.17 in 10.0 mi SSW 4.6 mph - N/A   Clear
4:52 PM 66.0 °F - 43.0 °F 43% 30.15 in 10.0 mi South 6.9 mph - N/A   Partly Cloudy
5:52 PM 64.0 °F - 46.0 °F 52% 30.15 in 10.0 mi Calm Calm - N/A   Partly Cloudy
6:52 PM 60.1 °F - 48.0 °F 64% 30.16 in 10.0 mi SSE 3.5 mph - N/A   Clear
7:52 PM 55.0 °F - 48.9 °F 80% 30.17 in 10.0 mi South 3.5 mph - N/A   Clear
8:52 PM 53.1 °F - 48.0 °F 83% 30.17 in 10.0 mi Calm Calm - N/A   Clear
10:52 PM 48.9 °F - 46.9 °F 93% 30.18 in 10.0 mi Calm Calm - N/A   Mostly Cloudy
11:52 PM 50.0 °F - 48.0 °F 93% 30.17 in 10.0 mi Calm Calm - N/A   Overcast